Location: Fort Worth, Tx
(32.7431°N, 97.3695°W)
Time: 13:19:03
(UTC-05:00)

Transit 2A Rocket - All Passes

Search period start: 30 January 2023 00:00
Search period end: 09 February 2023 00:00
Orbit: 585 x 915 km, 66.7° (Epoch: 29 January)

Date Brightness Start Highest point End Pass type
(mag) Time Alt. Az. Time Alt. Az. Time Alt. Az.
30 Jan - 01:29:00 10° SSW 01:33:40 77° ESE 01:38:50 10° NNE night (unlit)
30 Jan - 03:14:58 10° WNW 03:16:57 12° NW 03:19:01 10° NNW night (unlit)
30 Jan - 10:16:34 10° N 10:21:42 28° NE 10:26:49 10° ESE daylight
30 Jan - 11:58:42 10° NW 12:04:24 43° WSW 12:10:03 10° S daylight
31 Jan - 00:46:28 10° S 00:50:46 38° ESE 00:55:29 10° NE night (unlit)
31 Jan - 02:29:47 10° WSW 02:33:28 21° NW 02:37:26 10° N night (unlit)
31 Jan - 09:34:27 10° N 09:38:16 17° NE 09:42:07 10° E daylight
31 Jan - 11:15:22 10° NNW 11:21:28 76° WSW 11:27:29 10° SSE daylight
01 Feb - 00:04:41 10° SSE 00:08:01 19° ESE 00:11:33 10° ENE night (unlit)
01 Feb - 01:45:43 10° SW 01:50:09 37° WNW 01:55:01 10° N night (unlit)
01 Feb - 10:32:22 10° NNW 10:38:24 64° ENE 10:44:24 10° SE daylight
01 Feb - 12:16:42 10° WNW 12:20:25 17° WSW 12:24:07 10° SW daylight
02 Feb - 01:02:16 10° SSW 01:06:59 72° WNW 01:12:13 10° NNE night (unlit)
02 Feb - 09:49:36 10° N 09:55:13 37° ENE 10:00:47 10° SE daylight
02 Feb - 11:32:26 10° NW 11:37:40 31° WSW 11:42:49 10° SSW daylight
03 Feb - 00:19:24 10° S 00:24:00 58° ESE 00:29:06 10° NE night (unlit)
03 Feb - 02:04:06 10° W 02:07:03 16° NW 02:10:10 10° NNW night (unlit)
03 Feb - 09:07:11 10° N 09:11:53 23° NE 09:16:34 10° ESE daylight
03 Feb - 10:48:52 10° NW 10:54:48 54° WSW 11:00:38 10° S daylight
03 Feb - 23:37:07 10° SSE 23:41:10 29° ESE 23:45:33 10° NE night (unlit)
04 Feb - 01:19:31 10° WSW 01:23:38 27° NW 01:28:06 10° N night (unlit)
04 Feb - 08:25:24 10° NNE 08:28:24 14° NE 08:31:24 10° ENE daylight
04 Feb - 10:05:41 10° NNW 10:11:48 87° ENE 10:17:50 10° SSE daylight
04 Feb - 11:51:52 10° W 11:53:34 11° WSW 11:55:17 10° WSW daylight
04 Feb - 22:55:51 10° SE 22:58:28 15° ESE 23:01:11 10° ENE night (unlit)
05 Feb - 00:35:44 10° SW 00:40:22 49° WNW 00:45:30 10° NNE night (unlit)
05 Feb - 09:22:45 10° NNW 09:28:41 51° ENE 09:34:32 10° SE daylight
05 Feb - 11:06:23 10° WNW 11:10:52 22° WSW 11:15:18 10° SSW daylight
05 Feb - 23:52:31 10° SSW 23:57:16 87° ESE 00:02:34 10° NNE night (unlit)
06 Feb - 01:39:06 10° WNW 01:40:41 11° NW 01:42:19 10° NNW night (unlit)
06 Feb - 08:40:08 10° N 08:45:26 30° NE 08:50:42 10° ESE daylight
06 Feb - 10:22:28 10° NW 10:28:05 39° WSW 10:33:33 10° S daylight
06 Feb - 23:09:52 10° S 23:14:21 43° ESE 23:19:17 10° NE night (unlit)
07 Feb - 00:53:34 10° W 00:57:09 20° NW 01:01:00 10° N night (unlit)
07 Feb - 07:57:53 10° N 08:02:02 19° NE 08:06:10 10° E daylight
07 Feb - 09:39:05 10° NNW 09:45:09 69° WSW 09:51:06 10° SSE daylight
07 Feb - 22:27:54 10° SSE 22:31:34 22° ESE 22:35:29 10° NE night (unlit)
08 Feb - 00:09:22 10° WSW 00:13:48 34° WNW 00:18:39 10° N night (unlit)
08 Feb - 07:16:49 10° NNE 07:18:29 11° NE 07:20:08 10° ENE visible
08 Feb - 08:55:59 10° NNW 09:02:06 70° ENE 09:08:06 10° SSE daylight
08 Feb - 10:40:46 10° WNW 10:44:02 15° WSW 10:47:16 10° SW daylight
08 Feb - 21:47:44 10° ESE 21:48:54 11° E 21:50:05 10° E night (unlit)
08 Feb - 23:25:50 10° SW 23:30:36 64° WNW 23:35:54 10° NNE night (unlit)
